HULIANWANG DIGUI-111

Last updated on Mon Dec 15 2025 00:02:13 GMT+0000 (Coordinated Universal Time)

1 66921U 25285G 25348.33480861 .00000091 00000+0 14786-3 0 9999 2 66921 50.0112 110.7371 0006997 300.3369 59.6844 14.05885577 1131
UTC large
Height (km)
Speed (km/s)
/
Latitude / Longitude
Inclination (degrees)
Orbital Period (minutes)
Azimuth
Elevation
Range (km)
Doppler Factor

Next 0 passes for location: London (51.5072 / 0.1276)

Sorry there are no passes over London.